User: anonymous   Login
Location: Unspecified
(0.0000°N, 0.0000°E)
Time: 06:22:59
(UTC+00:00)
Language:

USA 158 - Orbit

View from above orbital plane
View from above orbital plane
View from above satellite
View from above satellite

Ground track
Ground track

The orbit data is extracted from the following two-line orbital elements,

1 26770U 01020A   18165.39794575 0.00000000  00000-0  00000-0 0    08
2 26770   6.8589  45.6416 0015544  46.6146 313.5269  0.98839216    07
Epoch (UTC): 14 June 2018 09:33:02
Eccentricity: 0.0015544
inclination: 6.8589°
perigee height: 36126 km
apogee height: 36259 km
right ascension of ascending node: 45.6416°
argument of perigee: 46.6146°
revolutions per day: 0.98839216
mean anomaly at epoch: 313.5269°
orbit number at epoch: 0

The dashed part of the orbit path shows where the satellite is in the earth's shadow,  

DLR